Regional Weather Roundup
Issued by NWS

Home | Current Version | Previous Version | Graphics & Text | Print | Product List | Glossary On
Versions: 1 2 3 4 5 6 7 8 9 10 11 12 13 14 15 16 17 18 19 20 21 22 23 24 25 26 27 28
000
ASUS45 KCYS 192010
RWRWY

WYOMING REGIONAL WEATHER ROUNDUP
NATIONAL WEATHER SERVICE CHEYENNE WY
100 PM MST SUN NOV 19 2017

NOTE:  "FAIR" INDICATES FEW OR NO CLOUDS BELOW 12,000 FEET
WITH NO SIGNIFICANT WEATHER AND/OR OBSTRUCTIONS TO VISIBILITY.

WYZ001-192100-
YELLOWSTONE NATIONAL PARK

CITY           SKY/WX    TMP DP  RH WIND       PRES   REMARKS
LK YELLOWSTONE   N/A     26  17  68 CALM      30.11F
W YELLOWSTONE  NOT AVBL

$$
WYZ002>013-054>058-071-098>099-192100-
NORTHERN WYOMING

CITY           SKY/WX    TMP DP  RH WIND       PRES   REMARKS
JACKSON        FAIR      28  16  59 S8        30.16F WCI  20
CODY           FAIR      47   4  17 W9G18     29.92F
GREYBULL       FAIR      35  23  61 SE3       29.95F
WORLAND        FAIR      34  25  69 CALM      29.95F
SHERIDAN       FAIR      50  29  44 CALM      29.82F
BUFFALO        FAIR      37  21  52 CALM      29.84F
GILLETTE       FAIR      52  14  22 SW20      29.84F
HULETT         FAIR      48  19  32 SW15      29.86F
NEWCASTLE      FAIR      43  16  33 SE5       29.95S

$$
WYZ014>020-022>026-101>103-192100-
CENTRAL WYOMING

CITY           SKY/WX    TMP DP  RH WIND       PRES   REMARKS
BIG PINEY      FAIR      25  17  72 N3        30.16F
PINEDALE       FAIR      34  21  60 SE6       30.14F WCI  29
DUBOIS         FAIR      41   9  26 NW14G20   29.99F
LANDER         FAIR      29  19  66 W6        29.99F WCI  23
RIVERTON       FAIR      30  20  66 CALM      30.01F
CASPER         FAIR      43  17  35 SW22G36   29.99F
DOUGLAS        FAIR      47  18  31 W17G29    29.96F

$$
WYZ021-027>030-104>119-192100-
SOUTHERN WYOMING

CITY           SKY/WX    TMP DP  RH WIND       PRES   REMARKS
EVANSTON       FAIR      28  20  71 SW7       30.17F WCI  21
KEMMERER       FAIR      32  12  43 NW6       30.16F WCI  26
FORT BRIDGER   FAIR      24  18  80 CALM      30.18F
ROCK SPRINGS   FAIR      29  19  66 SW8       30.16F WCI  21
DIXON          FAIR      31  21  66 N3        30.23F
RAWLINS        FLURRIES  36  15  42 SW22G36   30.13F WCI  25
SARATOGA       FAIR      36  18  48 S13       30.16F WCI  27
LARAMIE        FAIR      39  17  41 SW16      30.09F WCI  30
CHEYENNE       FAIR      52   4  14 W28G40    30.04F
TORRINGTON     FAIR      57   7  13 W18G30    29.96F
PINE BLUFFS    FAIR      55   3  12 W21G28    30.01F

$$




USA.gov is the U.S. government's official web portal to all federal, state and local government web resources and services.